Weather History for Topeka Forbes, KS

Change the Weather History Date:

Friday, October 25, 2013

  Actual Average Record
Temperature  
Mean Temperature 41 °F -  
Max Temperature 57 °F 64 °F 85 °F (1952)
Min Temperature 25 °F 40 °F 25 °F (2013)
Degree Days  
Heating Degree Days 24    
Moisture  
Dew Point 26 °F    
Average Humidity 58    
Maximum Humidity 88    
Minimum Humidity 28    
Precipitation  
Precipitation 0.00 in - - ()
Sea Level Pressure  
Sea Level Pressure 30.36 in    
Wind  
Wind Speed 5 mph (South)    
Max Wind Speed 16 mph    
Max Gust Speed 23 mph    
Visibility 10 miles    
Events      
Averages and records for this station are not official NWS values.
T = Trace of Precipitation, MM = Missing Value Source: NWS Daily Summary

Daily Weather History Graph

Daily Weather History Graph

Search for Another Location

Airport:

Trip Planner

Search our weather history database for the weather conditions in past years. The results will help you decide how hot, cold, wet, or windy it might be!

Date:

Astronomy

Oct. 25, 2013 Rise Set
Actual Time 7:42 AM CDT 6:30 PM CDT
Civil Twilight 7:15 AM CDT 6:57 PM CDT
Nautical Twilight 6:44 AM CDT 7:28 PM CDT
Astronomical Twilight 6:13 AM CDT 7:59 PM CDT
Moon 11:51 PM CDT (10/25) 1:22 PM CDT (10/25)
Length of Visible Light 11h 41m
Length of Day
10h 47m
Waning Gibbous, 62% of the Moon is Illuminated
Oct 25
Waning Gibbous
Oct 26
Last Quarter
Nov 3
New
Nov 9
First Quarter
Nov 17
Full

Hourly Weather History & Observations

Time (CDT) Temp. Windchill Dew Point Humidity Pressure Visibility Wind Dir Wind Speed Gust Speed Precip Events Conditions
12:53 AM 28.9 °F - 25.0 °F 85% 30.46 in 10.0 mi Calm Calm - N/A   Clear
1:53 AM 28.0 °F - 25.0 °F 88% 30.47 in 10.0 mi Calm Calm - N/A   Clear
2:53 AM 28.0 °F - 24.1 °F 85% 30.47 in 10.0 mi Calm Calm - N/A   Clear
3:53 AM 27.0 °F - 23.0 °F 85% 30.47 in 10.0 mi Calm Calm - N/A   Clear
4:53 AM 26.1 °F - 21.9 °F 84% 30.47 in 10.0 mi Calm Calm - N/A   Clear
5:53 AM 26.1 °F 21.9 °F 21.9 °F 84% 30.47 in 10.0 mi SE 3.5 mph - N/A   Clear
6:53 AM 25.0 °F - 21.0 °F 85% 30.48 in 10.0 mi Calm Calm - N/A   Clear
7:53 AM 26.1 °F - 21.9 °F 84% 30.47 in 10.0 mi Calm Calm - N/A   Clear
8:53 AM 34.0 °F 28.8 °F 28.0 °F 79% 30.48 in 10.0 mi South 5.8 mph - N/A   Clear
9:53 AM 42.1 °F 36.6 °F 30.9 °F 65% 30.48 in 10.0 mi South 9.2 mph - N/A   Clear
10:53 AM 48.0 °F - 28.9 °F 48% 30.45 in 10.0 mi South 12.7 mph - N/A   Clear
11:53 AM 52.0 °F - 27.0 °F 38% 30.43 in 10.0 mi South 16.1 mph - N/A   Clear
12:53 PM 54.0 °F - 26.1 °F 34% 30.40 in 10.0 mi SSW 15.0 mph 23.0 mph N/A   Clear
1:53 PM 55.9 °F - 25.0 °F 30% 30.36 in 10.0 mi South 12.7 mph 19.6 mph N/A   Clear
2:53 PM 57.0 °F - 24.1 °F 28% 30.32 in 10.0 mi South 11.5 mph - N/A   Clear
3:53 PM 57.9 °F - 25.0 °F 28% 30.28 in 10.0 mi South 12.7 mph - N/A   Clear
4:53 PM 55.9 °F - 25.0 °F 30% 30.25 in 10.0 mi South 11.5 mph - N/A   Clear
5:53 PM 55.0 °F - 26.1 °F 33% 30.23 in 10.0 mi South 9.2 mph - N/A   Partly Cloudy
6:53 PM 50.0 °F - 27.0 °F 41% 30.22 in 10.0 mi SSE 8.1 mph - N/A   Clear
7:53 PM 46.9 °F - 28.0 °F 48% 30.21 in 10.0 mi SSE 6.9 mph - N/A   Clear
8:53 PM 46.0 °F 42.5 °F 28.0 °F 50% 30.20 in 10.0 mi South 6.9 mph - N/A   Clear
9:53 PM 48.9 °F - 30.0 °F 48% 30.19 in 10.0 mi South 9.2 mph - N/A   Overcast
10:53 PM 48.0 °F - 32.0 °F 54% 30.17 in 10.0 mi South 10.4 mph - N/A   Scattered Clouds
11:53 PM 48.0 °F - 33.1 °F 56% 30.16 in 10.0 mi SSW 10.4 mph - N/A   Clear